DRAGON CRS-13 DEB (43061 NORAD) Tracking and Keplerian Element Data

This shows tracking and keplerian element data for the satellite.

Feedback or suggestion? Click here.




ElementValue
Catalog43061
NameDRAGON CRS-13 DEB
Epoch Orbit67
Epoch Day353.81187793
Epoch Year2017
RAAN191.4575
Inclination51.6245
Eccentricity0.0035121
Argument of Perigee66.2476
Mean Anonmoly313.8351
Mean Motion16.28765966
Decay Rate0.08543521
L11 43061U 17080B 17353.81187793 .08543521 12275-4 16801-2 0 9990
L22 43061 51.6245 191.4575 0035121 66.2476 313.8351 16.28765966 677



Live tracking and technical data element details for DRAGON CRS-13 DEB (NORAD 43061). DRAGON CRS-13 DEB can be tracked NOW for your location showing map with azimuth and elevation plus other details from your city location.







IsCatalogInMostPopularTable: catalog: 43061, numindb: 650
Update: records affected: 1



GetName: 43061 DRAGON CRS-13 DEB

Hit Count: updated at: Sat, 17 May 2025 08:44:58 GMT